Dillingham, AK

3:43 PM AKDT on May 20, 2018 (GMT -0800)
Dillingham

Weather History for PADL - June, 2014

Change the Weather History Date:

Saturday, June 7, 2014

  Actual Average Record
Temperature  
Mean Temperature 53 °F -  
Max Temperature 60 °F 56 °F 71 °F (1966)
Min Temperature 46 °F 41 °F 29 °F (1982)
Degree Days  
Heating Degree Days 12    
Growing Degree Days 3 (Base 50)    
Moisture  
Dew Point 46 °F    
Average Humidity 79    
Maximum Humidity 100    
Minimum Humidity 55    
Precipitation  
Precipitation 0.00 in - - ()
Sea Level Pressure  
Sea Level Pressure 29.69 in    
Wind  
Wind Speed 6 mph (NNW)    
Max Wind Speed 12 mph    
Max Gust Speed -    
Visibility 11 miles    
Events Rain    
Averages and records for this station are not official NWS values.
T = Trace of Precipitation, MM = Missing Value Source: NWS Daily Summary

Daily Weather History Graph

Daily Weather History Graph

Search for Another Location

Airport or City:

Astronomy

Jun. 07, 2014 Rise Set
Actual Time 5:25 AM AKDT 11:41 PM AKDT
Civil Twilight 4:04 AM AKDT 1:02 AM AKDT
Nautical Twilight Sun does not set Sun does not set
Astronomical Twilight Sun does not set Sun does not set
Moon 4:51 PM AKDT (6/7) 3:19 AM AKDT (6/7)
Length of Visible Light 20h 57m
Length of Day
18h 16m
Waxing Gibbous, 69% of the Moon is Illuminated
Jun 7
Waxing Gibbous
Jun 12
Full
Jun 19
Last Quarter
Jun 27
New
Jul 5
First Quarter

Hourly Weather History & Observations

Time (AKDT) Temp. Windchill Dew Point Humidity Pressure Visibility Wind Dir Wind Speed Gust Speed Precip Events Conditions
12:16 AM 55.4 °F - 44.6 °F 67% 29.75 in 10.0 mi NNE 5.8 mph - N/A   Overcast
12:36 AM 53.6 °F - 44.6 °F 72% 29.75 in 10.0 mi NNE 3.5 mph - N/A   Overcast
12:56 AM 53.6 °F - 44.6 °F 72% 29.75 in 10.0 mi North 5.8 mph - N/A   Overcast
1:16 AM 53.6 °F - 44.6 °F 72% 29.74 in 10.0 mi North 4.6 mph - N/A   Overcast
1:36 AM 51.8 °F - 44.6 °F 76% 29.74 in 10.0 mi North 6.9 mph - N/A   Overcast
1:56 AM 51.8 °F - 42.8 °F 71% 29.73 in 10.0 mi NNW 6.9 mph - N/A   Scattered Clouds
2:16 AM 51.8 °F - 42.8 °F 71% 29.73 in 10.0 mi NNW 4.6 mph - N/A   Partly Cloudy
2:36 AM 50.0 °F - 42.8 °F 76% 29.73 in 10.0 mi NNW 5.8 mph - N/A   Partly Cloudy
2:56 AM 48.2 °F - 42.8 °F 82% 29.72 in 10.0 mi NNW 5.8 mph - N/A   Partly Cloudy
3:16 AM 48.2 °F - 42.8 °F 82% 29.72 in 10.0 mi NNW 5.8 mph - N/A   Clear
3:36 AM 48.2 °F - 42.8 °F 82% 29.72 in 10.0 mi North 5.8 mph - N/A   Clear
4:16 AM 48.2 °F - 42.8 °F 82% 29.71 in 10.0 mi North 6.9 mph - N/A   Clear
4:56 AM 48.2 °F - 42.8 °F 82% 29.71 in 10.0 mi NNW 6.9 mph - N/A   Clear
5:16 AM 46.4 °F 43.5 °F 42.8 °F 87% 29.70 in 10.0 mi NNW 5.8 mph - N/A   Clear
5:36 AM 46.4 °F 42.9 °F 42.8 °F 87% 29.70 in 10.0 mi NNW 6.9 mph - N/A   Clear
5:56 AM 48.2 °F - 42.8 °F 82% 29.69 in 10.0 mi NNW 9.2 mph - N/A   Partly Cloudy
6:16 AM 48.2 °F - 42.8 °F 82% 29.69 in 10.0 mi NNW 6.9 mph - N/A   Partly Cloudy
6:36 AM 48.2 °F - 42.8 °F 82% 29.69 in 10.0 mi NNW 8.1 mph - N/A   Partly Cloudy
6:56 AM 48.2 °F - 42.8 °F 82% 29.69 in 10.0 mi NNW 9.2 mph - N/A   Mostly Cloudy
7:16 AM 48.2 °F - 42.8 °F 82% 29.68 in 10.0 mi North 10.4 mph - N/A   Overcast
7:36 AM 50.0 °F - 44.6 °F 82% 29.68 in 10.0 mi North 9.2 mph - N/A   Overcast
7:45 AM 50.0 °F - 44.6 °F 82% 29.68 in 40.0 mi NNW 11.5 mph - N/A   Mostly Cloudy
9:54 AM 53.6 °F - 44.6 °F 72% 29.67 in 30.0 mi NNE 9.2 mph - N/A   Mostly Cloudy
10:55 AM 57.2 °F - 46.4 °F 67% 29.66 in 30.0 mi NNE 10.4 mph - N/A   Mostly Cloudy
11:52 AM 59.0 °F - 44.6 °F 59% 29.65 in 30.0 mi North 6.9 mph - N/A   Mostly Cloudy
12:53 PM 59.0 °F - 42.8 °F 55% 29.64 in 30.0 mi NE 6.9 mph - N/A   Mostly Cloudy
1:52 PM 60.8 °F - 44.6 °F 55% 29.64 in 30.0 mi NE 5.8 mph - N/A   Overcast
2:50 PM 57.2 °F - 46.4 °F 67% 29.64 in 30.0 mi NNW 9.2 mph - N/A   Overcast
4:50 PM 59.0 °F - 46.4 °F 63% 29.64 in 30.0 mi NNW 3.5 mph - N/A   Overcast
5:45 PM - - - N/A% 29.64 in 25.0 mi WNW 6.9 mph - N/A   Overcast
6:48 PM 57.2 °F - 50.0 °F 77% 29.64 in 20.0 mi NW 8.1 mph - N/A Rain Light Rain Showers
7:48 PM 55.4 °F - 51.8 °F 88% 29.64 in 20.0 mi WNW 6.9 mph - N/A   Overcast
8:52 PM 55.4 °F - 51.8 °F 88% 29.65 in 20.0 mi NW 9.2 mph - N/A   Overcast
9:30 PM 55.4 °F - 51.8 °F 88% 29.65 in 25.0 mi NNW 5.8 mph - N/A   Overcast
9:56 PM 53.6 °F - 51.8 °F 94% 29.65 in 10.0 mi NW 5.8 mph - N/A   Overcast
10:16 PM 53.6 °F - 51.8 °F 94% 29.66 in 10.0 mi NW 4.6 mph - N/A   Overcast
10:36 PM 53.6 °F - 51.8 °F 94% 29.66 in 10.0 mi NW 4.6 mph - N/A   Overcast
10:56 PM 53.6 °F - 51.8 °F 94% 29.66 in 10.0 mi NW 4.6 mph - N/A   Overcast
11:16 PM 53.6 °F - 51.8 °F 94% 29.67 in 10.0 mi NW 4.6 mph - N/A   Overcast
11:36 PM 53.6 °F - 51.8 °F 94% 29.67 in 10.0 mi WNW 4.6 mph - N/A   Overcast
11:56 PM 51.8 °F - 51.8 °F 100% 29.68 in 10.0 mi WNW 3.5 mph - N/A   Overcast